Michigan City, IN

11:20 AM CST on February 13, 2016 (GMT -0600)
Michigan City Municipal

Weather History for KMGC - February, 2013

Change the Weather History Date:

Sunday, February 24, 2013

  Actual Average (KVPZ) Record (KVPZ)
Temperature  
Mean Temperature 25 °F 30 °F  
Max Temperature 35 °F 38 °F 59 °F (2002)
Min Temperature 15 °F 23 °F 8 °F (2003)
Degree Days  
Heating Degree Days 40 35  
Month to date heating degree days 914  
Since 1 July heating degree days 4599  
Cooling Degree Days 0 0  
Month to date cooling degree days 0  
Year to date cooling degree days 0  
Moisture  
Dew Point 20 °F    
Average Humidity 75    
Maximum Humidity 93    
Minimum Humidity 56    
Precipitation  
Precipitation 0.00 in 0.04 in 1.76 in (2001)
Month to date precipitation 1.20  
Year to date precipitation 2.95  
Sea Level Pressure  
Sea Level Pressure 30.08 in    
Wind  
Wind Speed 5 mph (WSW)    
Max Wind Speed 9 mph    
Max Gust Speed -    
Visibility 9 miles    
Events      
T = Trace of Precipitation, MM = Missing Value Source: NWS Daily Summary

Daily Weather History Graph

Daily Weather History Graph

Search for Another Location

Airport or City:

Trip Planner

Search our weather history database for the weather conditions in past years. The results will help you decide how hot, cold, wet, or windy it might be!

Date:

Astronomy

Feb. 24, 2013 Rise Set
Actual Time 6:29 AM CST 5:32 PM CST
Civil Twilight 6:01 AM CST 6:00 PM CST
Nautical Twilight 5:29 AM CST 6:32 PM CST
Astronomical Twilight 4:57 AM CST 7:04 PM CST
Moon 4:42 PM CST (2/24) 5:26 AM CST (2/24)
Length of Visible Light 11h 58m
Length of Day
11h 02m
Waxing Gibbous, 99% of the Moon is Illuminated
Feb 24
Waxing Gibbous
Feb 25
Full
Mar 4
Last Quarter
Mar 11
New
Mar 19
First Quarter

Hourly Weather History & Observations

Time (CST) Temp. Windchill Dew Point Humidity Pressure Visibility Wind Dir Wind Speed Gust Speed Precip Events Conditions
12:15 AM 26.6 °F 20.0 °F 21.2 °F 80% 29.96 in 10.0 mi SW 5.8 mph - N/A   Overcast
12:35 AM 26.6 °F 20.0 °F 21.2 °F 80% 29.96 in 10.0 mi WSW 5.8 mph - N/A   Overcast
12:55 AM 26.6 °F 20.0 °F 21.2 °F 80% 29.97 in 10.0 mi WSW 5.8 mph - N/A   Overcast
1:15 AM 26.6 °F 20.0 °F 19.4 °F 74% 29.97 in 10.0 mi SW 5.8 mph - N/A   Overcast
1:35 AM 24.8 °F 16.9 °F 19.4 °F 80% 29.97 in 10.0 mi SW 6.9 mph - N/A   Overcast
1:55 AM 23.0 °F 17.0 °F 19.4 °F 86% 29.97 in 10.0 mi SW 4.6 mph - N/A   Overcast
2:15 AM 21.2 °F 14.9 °F 17.6 °F 86% 29.97 in 10.0 mi SW 4.6 mph - N/A   Scattered Clouds
2:35 AM 19.4 °F 11.5 °F 17.6 °F 93% 29.97 in 10.0 mi SW 5.8 mph - N/A   Clear
2:55 AM 21.2 °F 14.9 °F 17.6 °F 86% 29.98 in 10.0 mi SW 4.6 mph - N/A   Mostly Cloudy
3:15 AM 19.4 °F 11.5 °F 17.6 °F 93% 29.98 in 10.0 mi SW 5.8 mph - N/A   Mostly Cloudy
3:55 AM 17.6 °F 10.7 °F 15.8 °F 93% 29.99 in 7.0 mi SW 4.6 mph - N/A   Clear
4:15 AM 17.6 °F 9.3 °F 15.8 °F 93% 30.00 in 7.0 mi SW 5.8 mph - N/A   Clear
4:35 AM 17.6 °F - 15.8 °F 93% 30.01 in 7.0 mi Calm Calm - N/A   Clear
4:55 AM 19.4 °F - 17.6 °F 93% 30.01 in 7.0 mi Calm Calm - N/A   Clear
5:15 AM 17.6 °F 9.3 °F 15.8 °F 93% 30.02 in 7.0 mi SSW 5.8 mph - N/A   Clear
5:35 AM 17.6 °F 10.7 °F 15.8 °F 93% 30.02 in 5.0 mi SSW 4.6 mph - N/A   Clear
5:55 AM 15.8 °F 6.1 °F 14.0 °F 93% 30.03 in 7.0 mi SW 6.9 mph - N/A   Scattered Clouds
6:15 AM 15.8 °F 8.6 °F 14.0 °F 93% 30.03 in 7.0 mi SW 4.6 mph - N/A   Scattered Clouds
6:55 AM 17.6 °F 9.3 °F 14.0 °F 86% 30.05 in 5.0 mi SW 5.8 mph - N/A   Clear
7:15 AM 19.4 °F 12.8 °F 17.6 °F 93% 30.05 in 5.0 mi SW 4.6 mph - N/A   Clear
7:35 AM 21.2 °F 13.6 °F 17.6 °F 86% 30.07 in 5.0 mi SW 5.8 mph - N/A   Clear
7:55 AM 21.2 °F 12.6 °F 19.4 °F 93% 30.07 in 7.0 mi SW 6.9 mph - N/A   Clear
8:15 AM 23.0 °F 15.8 °F 19.4 °F 86% 30.08 in 7.0 mi SW 5.8 mph - N/A   Clear
8:35 AM 26.6 °F 22.6 °F 19.4 °F 74% 30.08 in 7.0 mi SW 3.5 mph - N/A   Clear
8:55 AM 26.6 °F 21.2 °F 19.4 °F 74% 30.08 in 10.0 mi WSW 4.6 mph - N/A   Clear
9:15 AM 28.4 °F 23.3 °F 19.4 °F 69% 30.08 in 10.0 mi SSW 4.6 mph - N/A   Clear
9:35 AM 30.2 °F 26.7 °F 21.2 °F 69% 30.08 in 10.0 mi SSW 3.5 mph - N/A   Clear
9:55 AM 32.0 °F 26.4 °F 19.4 °F 60% 30.09 in 10.0 mi WSW 5.8 mph - N/A   Clear
10:15 AM 32.0 °F 26.4 °F 21.2 °F 64% 30.10 in 10.0 mi West 5.8 mph - N/A   Clear
10:35 AM 32.0 °F 24.8 °F 19.4 °F 60% 30.10 in 10.0 mi WNW 8.1 mph - N/A   Clear
10:55 AM 33.8 °F 26.4 °F 19.4 °F 56% 30.11 in 10.0 mi West 9.2 mph - N/A   Clear
11:15 AM 33.8 °F 27.7 °F 19.4 °F 56% 30.11 in 10.0 mi West 6.9 mph - N/A   Clear
11:35 AM 33.8 °F 27.0 °F 19.4 °F 56% 30.11 in 10.0 mi WNW 8.1 mph - N/A   Clear
11:55 AM 33.8 °F 28.6 °F 19.4 °F 56% 30.11 in 10.0 mi NW 5.8 mph - N/A   Clear
12:15 PM 33.8 °F 27.7 °F 21.2 °F 60% 30.10 in 10.0 mi WNW 6.9 mph - N/A   Clear
12:35 PM 33.8 °F 27.7 °F 21.2 °F 60% 30.10 in 10.0 mi WNW 6.9 mph - N/A   Clear
12:55 PM 35.6 °F 30.7 °F 21.2 °F 56% 30.10 in 10.0 mi NW 5.8 mph - N/A   Clear
1:15 PM 35.6 °F 29.9 °F 21.2 °F 56% 30.10 in 10.0 mi WNW 6.9 mph - N/A   Clear
1:35 PM 35.6 °F 30.7 °F 21.2 °F 56% 30.10 in 10.0 mi West 5.8 mph - N/A   Clear
1:55 PM 35.6 °F 29.2 °F 23.0 °F 60% 30.10 in 10.0 mi WNW 8.1 mph - N/A   Clear
2:15 PM 35.6 °F 29.9 °F 23.0 °F 60% 30.10 in 10.0 mi WNW 6.9 mph - N/A   Clear
2:35 PM 35.6 °F 30.7 °F 23.0 °F 60% 30.10 in 10.0 mi NW 5.8 mph - N/A   Clear
2:55 PM 35.6 °F 30.7 °F 23.0 °F 60% 30.10 in 10.0 mi NW 5.8 mph - N/A   Clear
3:15 PM 35.6 °F 30.7 °F 23.0 °F 60% 30.10 in 10.0 mi NW 5.8 mph - N/A   Clear
3:35 PM 35.6 °F 32.8 °F 23.0 °F 60% 30.11 in 10.0 mi NW 3.5 mph - N/A   Clear
3:55 PM 33.8 °F 28.6 °F 23.0 °F 65% 30.11 in 10.0 mi NNW 5.8 mph - N/A   Clear
4:15 PM 33.8 °F 30.8 °F 23.0 °F 65% 30.11 in 10.0 mi NW 3.5 mph - N/A   Clear
4:35 PM 33.8 °F 30.8 °F 23.0 °F 65% 30.11 in 10.0 mi NNW 3.5 mph - N/A   Clear
4:55 PM 33.8 °F 29.6 °F 23.0 °F 65% 30.12 in 10.0 mi North 4.6 mph - N/A   Clear
5:15 PM 32.0 °F - 21.2 °F 64% 30.12 in 10.0 mi Calm Calm - N/A   Clear
5:35 PM 32.0 °F - 21.2 °F 64% 30.12 in 10.0 mi Calm Calm - N/A   Clear
5:55 PM 32.0 °F - 21.2 °F 64% 30.12 in 10.0 mi Calm Calm - N/A   Clear
6:15 PM 30.2 °F - 21.2 °F 69% 30.13 in 10.0 mi Calm Calm - N/A   Clear
6:35 PM 30.2 °F - 21.2 °F 69% 30.14 in 10.0 mi Calm Calm - N/A   Clear
6:55 PM 30.2 °F - 21.2 °F 69% 30.14 in 10.0 mi Calm Calm - N/A   Clear
7:15 PM 28.4 °F - 21.2 °F 74% 30.14 in 10.0 mi Calm Calm - N/A   Clear
7:35 PM 28.4 °F - 23.0 °F 80% 30.15 in 10.0 mi Calm Calm - N/A   Clear
7:55 PM 28.4 °F - 23.0 °F 80% 30.15 in 10.0 mi Calm Calm - N/A   Clear
8:15 PM 26.6 °F - 23.0 °F 86% 30.15 in 10.0 mi Calm Calm - N/A   Clear
8:35 PM 28.4 °F - 23.0 °F 80% 30.15 in 10.0 mi Calm Calm - N/A   Clear
8:55 PM 26.6 °F - 23.0 °F 86% 30.15 in 10.0 mi Calm Calm - N/A   Clear
9:15 PM 26.6 °F - 21.2 °F 80% 30.15 in 10.0 mi Calm Calm - N/A   Clear
9:35 PM 26.6 °F - 21.2 °F 80% 30.15 in 10.0 mi Calm Calm - N/A   Clear
9:55 PM 26.6 °F - 23.0 °F 86% 30.15 in 10.0 mi Calm Calm - N/A   Clear
10:15 PM 26.6 °F - 21.2 °F 80% 30.15 in 10.0 mi Calm Calm - N/A   Clear
10:35 PM 24.8 °F - 21.2 °F 86% 30.15 in 10.0 mi Calm Calm - N/A   Clear
10:55 PM 24.8 °F - 21.2 °F 86% 30.15 in 10.0 mi Calm Calm - N/A   Clear
11:15 PM 24.8 °F - 21.2 °F 86% 30.15 in 10.0 mi Calm Calm - N/A   Clear
11:35 PM 23.0 °F - 21.2 °F 93% 30.15 in 10.0 mi Calm Calm - N/A   Clear
11:55 PM 23.0 °F - 21.2 °F 93% 30.15 in 10.0 mi Calm Calm - N/A   Clear